Greybull, WY

2:54 PM MST on November 18, 2017 (GMT -0700)
South Big Horn County

Weather History for KGEY - February, 2012

Change the Weather History Date:

Sunday, February 12, 2012

  Actual Average Record
Temperature  
Mean Temperature 15 °F 22 °F  
Max Temperature 27 °F 34 °F 56 °F (2015)
Min Temperature 3 °F 10 °F -9 °F (2004)
Degree Days  
Heating Degree Days 50 43  
Month to date heating degree days 537  
Since 1 July heating degree days 5351  
Cooling Degree Days 0 0  
Month to date cooling degree days 0  
Year to date cooling degree days 0  
Moisture  
Dew Point 8 °F    
Average Humidity 89    
Maximum Humidity 100    
Minimum Humidity 72    
Precipitation  
Precipitation 0.00 in 0.00 in 0.01 in (2007)
Month to date precipitation 0.07  
Year to date precipitation 0.30  
Sea Level Pressure  
Sea Level Pressure 30.00 in    
Wind  
Wind Speed 2 mph (SSE)    
Max Wind Speed 6 mph    
Max Gust Speed -    
Visibility 5 miles    
Events Fog    
T = Trace of Precipitation, MM = Missing Value Source: NWS Daily Summary

Daily Weather History Graph

Daily Weather History Graph

Search for Another Location

Airport or City:

Trip Planner

Search our weather history database for the weather conditions in past years. The results will help you decide how hot, cold, wet, or windy it might be!

Date:

Astronomy

Feb. 12, 2012 Rise Set
Actual Time 7:17 AM MST 5:36 PM MST
Civil Twilight 6:47 AM MST 6:06 PM MST
Nautical Twilight 6:13 AM MST 6:40 PM MST
Astronomical Twilight 5:39 AM MST 7:14 PM MST
Moon 11:56 PM MST (2/12) 9:21 AM MST (2/12)
Length of Visible Light 11h 19m
Length of Day
10h 19m
Waning Gibbous, 71% of the Moon is Illuminated
Feb 12
Waning Gibbous
Feb 14
Last Quarter
Feb 21
New
Feb 29
First Quarter
Mar 8
Full

Hourly Weather History & Observations

Time (MST) Temp. Windchill Dew Point Humidity Pressure Visibility Wind Dir Wind Speed Gust Speed Precip Events Conditions
12:53 AM 3.0 °F -8.0 °F -0.9 °F 84% 30.21 in 10.0 mi West 5.8 mph - N/A   Clear
1:53 AM 3.9 °F - 1.0 °F 88% 30.20 in 9.0 mi Calm Calm - N/A   Clear
2:02 AM 3.2 °F - 1.4 °F 92% 30.00 in 7.0 mi Calm Calm - N/A   Scattered Clouds
2:18 AM 3.2 °F -6.2 °F 1.4 °F 92% 29.99 in 1.8 mi SE 4.6 mph - N/A   Mostly Cloudy
2:21 AM 3.2 °F -6.2 °F 1.4 °F 92% 29.99 in 0.8 mi SE 4.6 mph - N/A   Mist
2:31 AM 3.2 °F -6.2 °F 1.4 °F 92% 29.99 in 1.2 mi SE 4.6 mph - N/A   Mostly Cloudy
2:42 AM 3.2 °F -4.2 °F 1.4 °F 92% 29.99 in 0.8 mi SSE 3.5 mph - N/A   Mist
2:53 AM 3.9 °F -3.4 °F 3.0 °F 96% 30.17 in 0.2 mi SSE 3.5 mph - N/A Fog Light Freezing Fog
3:53 AM 5.0 °F - 3.9 °F 95% 30.14 in 0.2 mi Calm Calm - N/A Fog Light Freezing Fog
4:53 AM 5.0 °F -2.1 °F 3.9 °F 95% 30.13 in 0.2 mi SSE 3.5 mph - N/A Fog Light Freezing Fog
5:53 AM 3.9 °F - 3.0 °F 96% 30.12 in 0.5 mi Calm Calm - N/A Fog Light Freezing Fog
6:35 AM 3.2 °F - 1.4 °F 92% 29.92 in 1.2 mi Calm Calm - N/A   Overcast
6:43 AM 5.0 °F - 1.4 °F 85% 29.92 in 3.0 mi Calm Calm - N/A   Overcast
6:53 AM 5.0 °F - 1.9 °F 87% 30.11 in 4.0 mi Calm Calm - N/A   Overcast
7:30 AM 5.0 °F - 3.2 °F 92% 29.91 in 2.0 mi Calm Calm - N/A   Overcast
7:37 AM 5.0 °F - 3.2 °F 92% 29.91 in 1.2 mi Calm Calm - N/A   Overcast
7:47 AM 5.0 °F - 1.4 °F 85% 29.91 in 3.0 mi Calm Calm - N/A   Overcast
7:53 AM 5.0 °F - 3.0 °F 92% 30.12 in 1.2 mi Calm Calm - N/A   Overcast
7:57 AM 5.0 °F - 3.2 °F 92% 29.91 in 0.8 mi Calm Calm - N/A   Overcast
8:53 AM 7.0 °F - 5.0 °F 92% 30.12 in 0.2 mi Calm Calm - N/A Fog Light Freezing Fog
9:31 AM 8.6 °F 2.0 °F 6.8 °F 92% 29.90 in 1.2 mi NW 3.5 mph - 0.00 in   Overcast
9:41 AM 8.6 °F 2.0 °F 6.8 °F 92% 29.90 in 2.5 mi NNW 3.5 mph - 0.00 in   Overcast
9:53 AM 9.0 °F 0.6 °F 7.0 °F 92% 30.12 in 2.5 mi WNW 4.6 mph - 0.00 in   Overcast
10:10 AM 10.4 °F 4.0 °F 8.6 °F 92% 29.89 in 3.0 mi NNW 3.5 mph - N/A   Overcast
10:53 AM 12.9 °F - 12.9 °F 100% 30.09 in 5.0 mi Calm Calm - N/A   Overcast
11:21 AM 15.8 °F - 12.2 °F 86% 29.87 in 7.0 mi Calm Calm - N/A   Scattered Clouds
11:53 AM 17.1 °F - 12.9 °F 84% 30.06 in 8.0 mi Calm Calm - N/A   Clear
12:53 PM 19.9 °F - 15.1 °F 81% 30.01 in 10.0 mi Calm Calm - N/A   Clear
1:53 PM 25.0 °F - 17.1 °F 72% 29.97 in 10.0 mi Calm Calm - N/A   Clear
2:53 PM 25.0 °F - 18.0 °F 75% 29.96 in 10.0 mi Calm Calm - N/A   Overcast
3:53 PM 27.0 °F 23.0 °F 19.0 °F 72% 29.94 in 10.0 mi SE 3.5 mph - N/A   Overcast
4:53 PM 27.0 °F - 19.9 °F 75% 29.92 in 10.0 mi Calm Calm - N/A   Overcast
5:53 PM 26.1 °F - 19.9 °F 78% 29.93 in 10.0 mi Calm Calm - N/A   Mostly Cloudy
6:53 PM 21.9 °F 17.2 °F 18.0 °F 85% 29.94 in 10.0 mi NW 3.5 mph - N/A   Overcast
7:53 PM 19.9 °F - 17.1 °F 89% 29.94 in 10.0 mi Calm Calm - N/A   Overcast
8:53 PM 17.1 °F - 14.0 °F 88% 29.95 in 9.0 mi Calm Calm - N/A   Overcast
9:53 PM 18.0 °F - 16.0 °F 92% 29.94 in 8.0 mi Calm Calm - N/A   Overcast
10:53 PM 19.0 °F - 16.0 °F 88% 29.93 in 7.0 mi Calm Calm - N/A   Overcast
11:53 PM 17.1 °F 11.7 °F 16.0 °F 96% 29.92 in 7.0 mi ESE 3.5 mph - N/A   Overcast